Vertical_Velocity
4 1 -2 -2 -2 -2 -1 -0 -0 -1 -1 -1 -1 1 -0 -0 1 2 1 -1 -1 2 0 -2 2 -2 -1 -2 -0 -1 -3 -1 -3 0 1 -1 -1 -1 2 -3 -3 0 -1
4 -1 -2 -1 -3 0 -1 -1 -2 -2 -2 -0 0 -1 -1 -0 1 -0 -1 1 2 2 -3 -1 1 -3 -3 2 0 -2 -1 -1 -4 -2 3 -1 0 -1 3 1 -1 -0 -1
-4 1 -2 -1 -2 -2 -1 -1 -2 -3 -3 -1 -1 0 0 1 -0 -0 -0 -2 0 1 -5 2 2 -2 -1 -1 1 -3 -3 -3 -2 -2 1 1 -0 -2 2 3 7 6 4
8 3 0 -3 -2 1 0 -1 -0 1 1 -2 -2 -3 -3 -2 -1 -1 -0 1 2 2 -2 3 0 -1 0 0 -1 1 1 -0 -2 -0 -4 -4 3 -1 -2 3 2 2 -0
-0 -1 -2 -4 -4 -2 -2 -3 -1 0 1 0 -2 -3 -2 -1 0 1 0 -1 -0 -4 1 2 -1 1 0 1 1 1 -0 -0 -0 -1 -0 -1 -3 -2 3 -3 -4 1 2
1 3 2 2 -4 -0 2 1 1 2 0 0 -0 -1 -1 1 -0 1 -1 -0 -1 -2 -1 1 -0 0 -2 0 0 -1 0 1 0 1 2 -1 0 1 -2 -5 -6 -5 -6
-2 -4 -5 -3 -5 -3 1 -1 -1 -3 -2 -1 -1 -2 -2 -3 -1 -3 -3 -1 -2 -1 0 0 0 2 0 2 0 0 2 1 0 1 0 0 2 1 2 1 -1 -2 -6
-1 -2 -1 -1 -1 2 1 -1 -1 -2 -1 -1 -0 -1 -0 0 -3 -3 -1 -1 -2 1 0 -1 0 1 1 2 2 1 2 2 -0 1 1 2 2 2 1 1 1 -2 -3
-2 -5 -1 -4 -2 -1 -1 0 -2 -2 -1 -1 -2 -1 -3 -4 -4 -3 -2 -3 -2 -2 -3 -3 -2 -2 -1 -1 -2 -1 2 -0 -0 1 1 0 0 -0 0 1 1 1 -2
1 -0 0 0 0 1 1 -0 -1 0 -0 -0 -1 -2 -1 0 1 0 1 2 -0 -2 -2 -2 -1 -1 -1 -1 -3 -0 0 -1 -1 -2 -1 0 -0 2 2 1 1 1 1
-1 0 -1 -1 -2 -1 -2 0 1 2 1 0 -1 -2 -2 -2 -1 -0 1 1 0 -1 -1 -0 -1 0 1 -0 -0 1 1 -1 -1 -0 -2 0 1 -0 1 1 2 2 2
-1 1 1 -0 -1 -2 -2 -1 -1 -3 -4 -3 -3 -3 -2 -1 -0 0 0 -1 -2 -1 -2 -2 -2 -2 -1 -1 -2 -2 -2 -2 -3 -3 -3 -4 -3 -2 -1 -0 1 1 1
1 -2 3 1 0 0 -0 -1 -1 1 5 1 -1 -0 1 1 0 -1 -2 -0 1 1 1 1 2 2 2 -0 -0 -1 -1 -1 -1 0 1 2 2 2 2 1 -0 1 2
-3 -1 0 1 6 4 4 2 1 -2 -3 -0 1 2 2 -1 -1 -0 1 1 0 -1 1 2 2 1 1 1 0 -1 -1 -0 1 0 -0 -1 -2 -0 2 1 3 2 0
-0 -0 -4 -0 0 -0 -2 -3 -4 -3 1 -1 -1 -2 -2 -1 0 -0 0 -0 -0 -1 -1 1 2 1 0 -1 -1 -1 -1 -1 1 2 -0 0 0 1 0 -1 2 -1 -0
-3 2 0 1 -0 -1 1 1 -1 0 1 -1 -2 1 1 2 1 -0 -2 -2 -2 -2 -1 -0 -1 -0 1 1 0 -0 1 0 -4 -4 2 1 1 2 1 -2 -3 -1 -3
-2 1 2 -0 0 0 2 -2 1 3 -2 -3 -0 1 2 -1 1 -1 -2 -0 -1 -0 -1 -3 -4 -4 -4 -3 -4 -2 -3 -2 1 -1 -2 -3 1 2 1 3 1 1 0
-4 -2 -1 -1 -1 0 -0 1 -0 -0 1 -1 -1 -0 0 -0 2 0 -0 -1 -1 -0 -0 1 1 -1 1 3 2 1 -2 -2 -2 1 -0 -3 -2 2 0 -1 -0 2 1
1 -1 -2 -3 -1 1 2 -0 -0 2 -3 -4 -3 4 1 -0 1 -2 0 1 -1 -1 1 -2 -2 -0 -4 6 3 3 1 0 -1 1 -0 -2 -2 1 2 -1 -3 -1 -5
-2 -6 -2 3 3 4 1 -1 0 -0 -1 1 -1 -0 2 -1 -1 2 1 2 1 -1 1 -0 3 1 -3 2 2 4 1 -4 -1 -0 -1 3 1 -0 -1 -2 1 -4 -4
4 4 5 4 5 2 2 2 3 -0 3 2 1 2 2 1 2 4 2 3 3 4 3 3 5 8 7 2 2 0 -2 -3 -4 -5 -5 0 2 1 0 1 -2 -5 2
20 14 7 7 5 2 1 4 0 4 2 4 6 4 6 5 3 3 3 2 1 -0 -1 -2 -4 -1 2 4 2 2 3 7 1 1 -1 -0 1 -4 -1 1 1 -0 3
8 2 -2 -1 6 -6 9 7 4 -1 4 4 3 2 1 0 1 -2 -2 -3 -1 -1 -1 -1 -3 -6 -4 -4 5 5 1 -2 -2 4 1 -0 -3 -2 -5 -1 -3 -0 -3
-2 0 5 2 3 -2 -3 -8 2 -9 -3 -1 4 7 1 0 0 0 1 1 1 -2 -3 -1 -4 -4 -3 -2 -1 -2 -1 3 0 -2 -0 -0 0 1 -3 -4 -1 0 3
-5 -5 -7 -3 -3 -7 -7 -1 2 10 1 1 5 1 2 -1 -3 -3 0 -2 1 4 1 -1 2 4 -7 -5 2 -0 -3 0 5 1 -4 -4 0 -3 2 2 3 5 4
1 -3 -4 -12 -19 -15 -15 -18 -19 -7 -1 -4 -1 -2 -5 -5 -1 -2 -7 1 -1 5 3 1 8 2 2 -2 3 3 2 5 8 -1 -4 -7 1 -4 -0 -1 -2 2 4
Height
1519 1521 1524 1526 1527 1527 1527 1527 1527 1526 1526 1525 1523 1521 1519 1518 1516 1513 1511 1509 1508 1506 1504 1503 1500 1497 1496 1494 1491 1487 1485 1483 1479 1477 1477 1477 1477 1478 1478 1478 1480 1480 1480
1516 1518 1521 1523 1524 1525 1524 1524 1524 1524 1523 1522 1520 1518 1516 1514 1512 1510 1509 1507 1506 1504 1502 1501 1498 1496 1494 1492 1490 1486 1484 1482 1480 1478 1477 1478 1479 1478 1478 1479 1479 1480 1480
1511 1515 1518 1520 1522 1522 1523 1522 1522 1521 1520 1519 1518 1516 1514 1511 1508 1507 1505 1504 1503 1501 1500 1499 1496 1494 1492 1490 1488 1486 1484 1482 1481 1480 1480 1479 1479 1478 1479 1479 1480 1480 1479
1510 1513 1516 1518 1519 1520 1521 1521 1521 1519 1517 1516 1514 1512 1510 1507 1506 1504 1502 1501 1499 1498 1498 1496 1494 1493 1491 1489 1487 1485 1483 1481 1481 1480 1479 1480 1480 1479 1479 1478 1478 1477 1477
1509 1511 1513 1516 1518 1518 1519 1519 1519 1517 1516 1514 1511 1510 1508 1506 1504 1501 1499 1498 1497 1496 1496 1494 1492 1491 1490 1488 1486 1484 1482 1481 1480 1479 1478 1477 1478 1479 1479 1477 1476 1476 1475
1509 1510 1511 1513 1516 1517 1517 1516 1516 1515 1514 1512 1510 1508 1506 1504 1502 1499 1497 1496 1494 1494 1493 1491 1491 1489 1488 1486 1485 1483 1482 1480 1479 1478 1477 1476 1477 1477 1477 1476 1475 1473 1472
1506 1507 1508 1509 1512 1513 1513 1513 1513 1513 1512 1510 1508 1506 1504 1502 1500 1497 1496 1494 1493 1491 1490 1489 1488 1487 1486 1484 1483 1482 1481 1480 1478 1477 1476 1476 1475 1475 1475 1474 1473 1471 1469
1501 1503 1505 1506 1508 1510 1509 1510 1510 1509 1509 1508 1506 1504 1502 1500 1498 1496 1494 1491 1490 1489 1487 1486 1486 1485 1484 1483 1481 1480 1479 1478 1477 1476 1476 1475 1474 1474 1473 1472 1472 1470 1468
1497 1499 1501 1502 1505 1506 1506 1507 1507 1507 1506 1505 1503 1502 1499 1497 1496 1494 1492 1489 1488 1486 1485 1484 1482 1482 1481 1480 1479 1478 1477 1476 1475 1475 1474 1473 1473 1472 1472 1471 1470 1470 1468
1495 1496 1498 1499 1501 1502 1502 1503 1503 1502 1502 1502 1501 1499 1498 1496 1493 1491 1489 1487 1485 1483 1482 1481 1479 1478 1477 1476 1476 1475 1474 1473 1473 1472 1472 1471 1471 1470 1469 1468 1467 1467 1466
1493 1494 1495 1496 1497 1498 1499 1499 1499 1499 1498 1498 1497 1496 1495 1493 1491 1489 1487 1484 1482 1481 1479 1478 1477 1475 1474 1473 1472 1472 1471 1470 1469 1469 1468 1468 1467 1466 1466 1465 1464 1463 1463
1488 1489 1489 1490 1491 1491 1492 1493 1493 1494 1494 1494 1493 1492 1491 1489 1488 1486 1483 1481 1480 1478 1477 1475 1474 1472 1471 1470 1469 1468 1467 1466 1465 1465 1464 1463 1463 1462 1462 1461 1460 1459 1459
1485 1486 1487 1486 1486 1486 1487 1488 1488 1489 1490 1490 1489 1489 1487 1486 1484 1482 1480 1478 1476 1474 1473 1471 1470 1468 1467 1466 1465 1464 1463 1462 1462 1461 1460 1459 1458 1457 1456 1456 1455 1455 1454
1483 1482 1482 1482 1482 1483 1483 1483 1483 1484 1485 1484 1484 1484 1483 1482 1480 1478 1476 1474 1472 1471 1469 1468 1466 1465 1464 1462 1461 1460 1459 1458 1457 1456 1455 1454 1453 1452 1452 1451 1450 1449 1448
1476 1475 1476 1476 1477 1478 1479 1479 1479 1480 1480 1479 1478 1478 1478 1477 1476 1474 1472 1470 1468 1467 1466 1465 1463 1462 1461 1459 1458 1456 1455 1454 1453 1452 1451 1449 1448 1447 1446 1445 1445 1444 1443
1468 1467 1469 1470 1470 1471 1472 1472 1473 1474 1474 1474 1474 1473 1471 1470 1468 1468 1466 1465 1464 1463 1461 1461 1459 1458 1457 1455 1454 1452 1451 1449 1449 1449 1448 1446 1444 1442 1440 1439 1439 1439 1437
1462 1461 1463 1464 1465 1466 1467 1468 1469 1470 1469 1468 1467 1466 1465 1463 1462 1461 1460 1459 1457 1456 1455 1454 1453 1452 1451 1449 1448 1447 1446 1445 1444 1442 1441 1441 1441 1439 1436 1435 1434 1433 1432
1460 1460 1461 1462 1462 1462 1463 1464 1464 1463 1462 1460 1458 1457 1457 1456 1456 1455 1454 1453 1452 1451 1450 1449 1447 1445 1444 1443 1441 1440 1439 1438 1438 1437 1436 1435 1435 1434 1431 1429 1428 1427 1426
1460 1459 1459 1459 1459 1459 1459 1459 1458 1457 1455 1453 1452 1451 1450 1450 1449 1449 1449 1447 1445 1445 1444 1442 1441 1439 1439 1438 1436 1434 1433 1431 1430 1430 1430 1429 1428 1427 1425 1423 1422 1420 1419
1458 1457 1456 1454 1454 1455 1455 1453 1451 1449 1446 1445 1445 1445 1444 1443 1443 1443 1443 1442 1440 1439 1437 1436 1434 1433 1433 1432 1432 1430 1427 1425 1425 1425 1423 1422 1420 1418 1418 1416 1414 1411 1411
1455 1454 1453 1453 1452 1451 1449 1447 1445 1443 1442 1441 1439 1439 1438 1437 1437 1436 1436 1435 1435 1433 1431 1430 1429 1427 1426 1425 1424 1423 1420 1418 1417 1416 1415 1414 1413 1410 1408 1407 1405 1403 1402
1453 1451 1450 1449 1448 1446 1444 1442 1440 1439 1437 1435 1434 1433 1432 1431 1430 1430 1429 1429 1428 1426 1425 1423 1421 1420 1419 1418 1416 1415 1414 1411 1407 1405 1404 1403 1402 1401 1399 1398 1396 1395 1394
1449 1446 1444 1443 1443 1441 1441 1438 1436 1435 1434 1431 1430 1427 1426 1426 1425 1423 1423 1422 1421 1420 1418 1416 1414 1411 1411 1410 1410 1407 1405 1404 1401 1397 1394 1393 1391 1391 1389 1388 1387 1386 1385
1446 1443 1440 1439 1436 1435 1433 1432 1432 1430 1430 1429 1427 1423 1421 1420 1418 1417 1416 1414 1413 1412 1410 1408 1405 1403 1401 1401 1401 1400 1397 1394 1390 1389 1387 1385 1383 1381 1380 1378 1377 1376 1375
1446 1443 1439 1438 1436 1434 1432 1432 1431 1428 1426 1424 1423 1420 1417 1415 1413 1411 1409 1407 1405 1405 1401 1399 1398 1395 1391 1391 1391 1389 1388 1385 1382 1379 1376 1374 1372 1370 1369 1368 1367 1366 1365
1445 1442 1439 1435 1433 1433 1431 1430 1428 1425 1422 1419 1417 1414 1411 1408 1405 1402 1399 1399 1397 1394 1393 1391 1390 1387 1385 1382 1381 1379 1378 1376 1375 1373 1370 1366 1363 1361 1360 1359 1358 1357 1356